{"data":{"norad_id":69706,"epoch":"2026-09-18T21:31:31.056672Z","epoch_age_seconds":160170,"freshness":"FRESH","line1":"1 69706U 26147C   26261.89688723  .00015873  00000+0  49290-3 0  9996","line2":"2 69706  97.2869 298.2107 0000373  71.0992 289.0291 15.33450444 13986","mean_motion":15.33450444,"eccentricity":3.73e-5,"inclination_deg":97.2869,"raan_deg":298.2107,"arg_perigee_deg":71.0992,"mean_anomaly_deg":289.0291,"bstar":0.0004929,"rev_number":1398,"period_min":93.905871274442,"perigee_km":465.27170834589,"apogee_km":465.78224567857,"semimajor_km":6843.6639770122,"source":"CELESTRAK","updated_at":"2026-09-20T09:00:44.257632Z"}}